Regional Weather Roundup
Issued by NWS

Home | Current Version | Previous Version | Text Only | Print | Product List | Glossary Off
Versions: 1 2 3 4 5 6 7 8 9 10 11 12 13 14 15 16 17 18 19 20 21 22 23 24 25 26 27 28 29 30 31 32 33 34 35 36 37 38 39 40 41 42 43 44 45 46 47 48 49 50

000
ASUS43 KMPX 282301
RWRMN
WEATHER ROUNDUP FOR MINNESOTA
NATIONAL WEATHER SERVICE TWIN CITIES/CHANHASSEN MN
600 PM CDT SAT MAR 28 2015


NOTE: "FAIR" INDICATES FEW OR NO CLOUDS BELOW 12,000 FEET WITH NO
SIGNIFICANT WEATHER AND/OR OBSTRUCTIONS TO VISIBILITY. N/A MEANS
CURRENT SKY AND/OR WEATHER CONDITIONS ARE NOT AVAILABLE.

MNZ060>063-068>070-290000-
   Twin Cities Metro

CITY           SKY/WX    TMP DP  RH WIND       PRES   REMARKS
TWIN CITIES    MOSUNNY   40  22  48 SE14      30.10F
ST PAUL        SUNNY     42  20  41 S15G22    30.11F
CRYSTAL        SUNNY     43  21  41 S12G21    30.08F
BLAINE         SUNNY     43  21  42 S15G23    30.09S
LAKEVILLE      SUNNY     36  25  64 SE12      30.10F
EDEN PRAIRIE   SUNNY     41  22  46 SE16      30.08F
SOUTH ST PAUL  SUNNY     41  20  43 S13       30.11F
LAKE ELMO      FAIR      41  23  48 S16       30.12S
$$
MNZ001>005-007-008-013>017-022>024-027-028-290000-
   Northwest Minnesota

CITY           SKY/WX    TMP DP  RH WIND       PRES   REMARKS
BEMIDJI        MOSUNNY   43  23  46 S17G24    29.87F
HALLOCK        CLOUDY    48  30  49 S32G39    29.70F
ROSEAU         CLOUDY    45  30  57 S20G31    29.76F
WARROAD        CLOUDY    45  28  53 S15G23    29.78F
THIEF RVR FALL PTSUNNY   45  28  53 S24G32    29.78F
CROOKSTON      CLOUDY    46  28  49 S33G39    29.79F
FOSSTON        PTSUNNY   43  27  52 S23G29    29.83F
DETROIT LAKES  MOSUNNY   43  30  61 S21G30    29.88F
MOORHEAD       MOSUNNY   50  27  40 S28G36    29.82F
PARK RAPIDS    MOSUNNY   45  24  43 S20G32    29.90F
MAHNOMEN       FAIR      43  27  54 S22G32    29.86F
$$
MNZ006-009>011-018-025>026-290000-
   North Central Minnesota

CITY           SKY/WX    TMP DP  RH WIND       PRES   REMARKS
BAUDETTE       MOSUNNY   43  23  45 S17G28    29.80F
FLAG ISLAND    CLOUDY    36  28  75 SE15      29.76F
INTL FALLS     MOSUNNY   44  15  31 SW15G23   29.86F
WASKISH        PTSUNNY   45  25  45 CALM      29.85F
BIG FORK       MOSUNNY   45  19  36 S18G25    29.91F
LONGVILLE      MOSUNNY   41  19  42 S10G20    29.93F
GRAND RAPIDS   MOSUNNY   41  18  38 S20G31    29.94F
ORR            MOSUNNY   43   9  24 S12G22    29.89F
COOK           SUNNY     41  14  33 S13G20    29.93F
WALKER         FAIR      42  22  45 S13G26    29.90F
$$
MNZ012-019>021-037-290000-
   Northeast Minnesota

CITY           SKY/WX    TMP DP  RH WIND       PRES   REMARKS
DULUTH         MOSUNNY   42  12  29 SW21      29.99F
ELY            SUNNY     43   5  21 SW15G21   29.94F
HIBBING        MOSUNNY   42  14  32 SW10G22   29.94F
EVELETH        SUNNY     43  14  31 S12G22    29.96F
DULUTH HARBOR  SUNNY     45   9  23 S15       30.03F
TWO HARBORS    SUNNY     45  18  33 SW14      29.99F
SILVER BAY     SUNNY     39  18  41 S8        30.00F
GRAND MARAIS     N/A     30  20  66 S3        30.06F
G MARAIS ARPRT PTSUNNY   28   5  37 S8        29.99F WCI  20
$$
MNZ029>031-032-039>041-046>048-054>057-064-290000-
   West Central Minnesota

CITY           SKY/WX    TMP DP  RH WIND       PRES   REMARKS
FERGUS FALLS   SUNNY     46  27  46 S25G33    29.90F
WHEATON        SUNNY     48  30  49 S18G28    29.88F
MORRIS         SUNNY     46  32  57 S26       29.90F
ALEXANDRIA     SUNNY     43  27  53 S23G29    29.94F
ELBOW LAKE     FAIR      44  31  58 S25       29.90F
WADENA         MOSUNNY   41  27  56 S18G25    29.92F
GLENWOOD       SUNNY     43  28  56 S23       29.96F
APPLETON       SUNNY     52  28  40 S17G24    29.93F
BENSON         SUNNY     46  28  49 S15G26    29.95F
ORTONVILLE     SUNNY     52  28  40 S17G25    29.89F
MADISON        SUNNY     52  27  37 S22G28    29.92F
WILLMAR        FAIR      46  28  49 S8G17     30.00F
$$
MNZ033>034-036-042>043-049>051-058-059-290000-
   Central Minnesota

CITY           SKY/WX    TMP DP  RH WIND       PRES   REMARKS
ST CLOUD       SUNNY     42  21  43 S18G28    30.02F
SAUK CENTRE    MOCLDY    42  28  55 S20G29    29.97F
PAYNESVILLE    SUNNY     40  26  57 SE13G24   30.01F
AITKIN         SUNNY     45  18  33 S16G23    29.97F
PINE RIVER     SUNNY     41  25  52 S15G23    29.98F
BRAINERD       SUNNY     41  21  44 S17G26    29.97F
STAPLES        MOSUNNY   41  25  52 S26       29.94F
LONG PRAIRIE   CLOUDY    39  28  65 SE18G26   29.96F
LITTLE FALLS   SUNNY     41  21  45 S13G23    30.00F
LITCHFIELD     SUNNY     45  27  49 S6        30.02F
BUFFALO        SUNNY     41  21  45 S10G20    30.07F
MAPLE LAKE     SUNNY     43  25  49 SE14G20   30.05F
$$
MNZ037-044-045-052-053-290000-
   East Central Minnesota

CITY           SKY/WX    TMP DP  RH WIND       PRES   REMARKS
PRINCETON      SUNNY     43  19  39 S14G21    30.05F
MORA           SUNNY     39  18  41 SW16G22   30.05F
CAMBRIDGE      SUNNY     45  25  45 S15G23    30.04F
RUSH CITY      SUNNY     41  15  35 S15       30.06F
MOOSE LAKE     SUNNY     43  18  36 S15G21    29.99F
HINCKLEY       FAIR      41  19  42 S15G23    30.05F
CLOQUET        SUNNY     41  10  28 S18       30.00F
MCGREGOR       SUNNY     41  19  42 S14G22    30.00F
$$
MNZ071>073-080-081-089-090-097-098-290000-
   Southwest Minnesota

CITY           SKY/WX    TMP DP  RH WIND       PRES   REMARKS
MONTEVIDEO     SUNNY     48  30  49 S16G23    29.96F
GRANITE FALLS  SUNNY     48  31  52 SE18      29.98F
CANBY          SUNNY     51  27  38 S16G25    29.93F
MARSHALL       SUNNY     50  28  43 S20G30    29.96F
REDWOOD FALLS  SUNNY     47  28  47 S23       30.00F
OLIVIA         SUNNY     45  30  57 S15G24    29.99F
PIPESTONE      SUNNY     50  27  40 S22       29.94S
WINDOM         SUNNY     46  27  46 S14G23    30.00F
WORTHINGTON    SUNNY     48  27  43 S20G29    29.99F
JACKSON        SUNNY     46  25  42 S17G24    30.03F
TRACY          SUNNY     49  30  48 S15G31    29.97F
SLAYTON        SUNNY     48  23  37 S22G28    29.97F
$$
MNZ065>067-074>077-082>085-091>093-290000-
   South Central Minnesota

CITY           SKY/WX    TMP DP  RH WIND       PRES   REMARKS
MANKATO        SUNNY     45  25  45 S15G23    30.07F
NEW ULM        SUNNY     46  25  42 S20G25    30.03F
ST JAMES       SUNNY     46  25  42 S20       30.04F
FAIRMONT       SUNNY     46  18  31 S21G28    30.04F
GLENCOE        SUNNY     43  29  57 S9        30.05F
FARIBAULT      SUNNY     39  25  56 SE14      30.10F
OWATONNA       SUNNY     41  25  52 S14       30.09F
WASECA         SUNNY     43  27  52 S17       30.09F
ALBERT LEA     SUNNY     45  21  39 S12       30.09F
$$
MNZ078>079-086>088-094>096-290000-
   Southeast Minnesota

CITY           SKY/WX    TMP DP  RH WIND       PRES   REMARKS
ROCHESTER      SUNNY     36  21  54 SE16      30.13F
RED WING       SUNNY     41  16  36 S10       30.13F
STANTON        SUNNY     39  22  49 SE12G17   30.10F
DODGE CENTER   SUNNY     36  25  64 SE15      30.11F
WINONA         SUNNY     37  18  44 S6        30.18F
AUSTIN         SUNNY     41  21  45 S13G20    30.11F
PRESTON        SUNNY     37  19  48 SE9       30.15F
$$
ABBREVIATIONS USED IN REMARKS
   TC - TEMPERATURES IN CELSIUS
  WCI - WIND CHILL INDEX
   HX - HEAT INDEX
  VSB - VISIBILITY
$$


USA.gov is the U.S. government's official web portal to all federal, state and local government web resources and services.